22-07-2022, 00:00:03,    147,    0.0,   15.4,   0.00,   0.00, 1018.2,   82.5, -999.0
22-07-2022, 00:00:13,    147,    0.0,   15.4,   0.00,   0.01, 1018.2,   82.5, -999.0
22-07-2022, 00:00:23,    147,    0.0,   15.4,   0.00,   0.00, 1018.2,   82.5, -999.0
22-07-2022, 00:00:33,    147,    0.2,   15.5,   0.00,   0.00, 1018.3,   82.8, -999.0
22-07-2022, 00:00:43,    147,    0.0,   15.5,   0.00,   0.01, 1018.2,   82.9, -999.0
22-07-2022, 00:00:53,    146,    0.4,   15.4,   0.00,   0.00, 1018.3,   83.0, -999.0
22-07-2022, 00:01:03,    146,    0.6,   15.4,   0.00,   0.00, 1018.4,   82.9, -999.0
22-07-2022, 00:01:15,    148,    1.1,   15.4,   0.00,   0.00, 1018.4,   82.5, -999.0
22-07-2022, 00:01:23,    146,    0.5,   15.4,   0.00,   0.01, 1018.4,   82.8, -999.0
22-07-2022, 00:01:33,    146,    0.0,   15.3,   0.00,   0.00, 1018.3,   82.5, -999.0
22-07-2022, 00:01:43,    146,    0.0,   15.4,   0.00,   0.00, 1018.2,   82.4, -999.0
22-07-2022, 00:01:52,    146,    0.0,   15.4,   0.00,   0.01, 1018.2,   82.4, -999.0
22-07-2022, 00:02:02,    146,    0.1,   15.3,   0.00,   0.00, 1018.2,   82.5, -999.0
22-07-2022, 00:02:13,    146,    0.4,   15.4,   0.00,   0.01, 1018.3,   82.9, -999.0
22-07-2022, 00:02:22,    146,    0.0,   15.5,   0.00,   0.00, 1018.2,   82.9, -999.0
22-07-2022, 00:02:32,    146,    0.4,   15.5,   0.00,   0.01, 1018.3,   83.2, -999.0
22-07-2022, 00:02:42,    146,    0.1,   15.4,   0.00,   0.00, 1018.3,   82.9, -999.0
22-07-2022, 00:02:52,    146,    0.0,   15.4,   0.00,   0.00, 1018.2,   82.8, -999.0
22-07-2022, 00:03:02,    146,    0.1,   15.4,   0.00,   0.01, 1018.3,   82.9, -999.0
22-07-2022, 00:03:12,    145,    0.2,   15.4,   0.00,   0.00, 1018.3,   83.1, -999.0
22-07-2022, 00:03:22,    146,    0.0,   15.4,   0.00,   0.01, 1018.2,   82.7, -999.0
22-07-2022, 00:03:32,    144,    0.1,   15.5,   0.00,   0.00, 1018.3,   83.1, -999.0
22-07-2022, 00:03:42,    146,    0.0,   15.5,   0.00,   0.01, 1018.2,   82.9, -999.0
22-07-2022, 00:03:52,    146,    0.0,   15.5,   0.00,   0.01, 1018.2,   83.0, -999.0
22-07-2022, 00:04:02,    146,    0.0,   15.6,   0.00,   0.01, 1018.1,   83.1, -999.0
22-07-2022, 00:04:12,    146,    0.0,   15.5,   0.00,   0.00, 1018.2,   83.2, -999.0
22-07-2022, 00:04:22,    146,    0.0,   15.6,   0.00,   0.01, 1018.2,   83.2, -999.0
22-07-2022, 00:04:31,    146,    0.0,   15.5,   0.00,   0.00, 1018.1,   83.1, -999.0
22-07-2022, 00:04:42,    146,    0.0,   15.5,   0.00,   0.01, 1018.1,   83.0, -999.0
22-07-2022, 00:04:52,    146,    0.0,   15.5,   0.00,   0.00, 1018.1,   82.9, -999.0
22-07-2022, 00:05:01,    146,    0.0,   15.5,   0.00,   0.01, 1018.1,   83.1, -999.0
22-07-2022, 00:05:12,    146,    0.0,   15.6,   0.00,   0.00, 1018.1,   83.2, -999.0
22-07-2022, 00:05:22,    146,    0.0,   15.5,   0.00,   0.00, 1018.1,   83.3, -999.0
22-07-2022, 00:05:31,    146,    0.0,   15.5,   0.00,   0.01, 1018.1,   83.1, -999.0
22-07-2022, 00:05:41,    146,    0.0,   15.6,   0.00,   0.00, 1018.1,   83.0, -999.0
22-07-2022, 00:05:51,    146,    0.0,   15.5,   0.00,   0.00, 1018.1,   83.2, -999.0
22-07-2022, 00:06:01,    146,    0.0,   15.6,   0.00,   0.00, 1018.1,   83.1, -999.0
22-07-2022, 00:06:11,    146,    0.0,   15.6,   0.00,   0.01, 1018.1,   83.3, -999.0
22-07-2022, 00:06:21,    146,    0.0,   15.5,   0.00,   0.00, 1018.1,   83.2, -999.0
22-07-2022, 00:06:31,    146,    0.0,   15.6,   0.00,   0.00, 1018.1,   83.3, -999.0
22-07-2022, 00:06:41,    146,    0.0,   15.6,   0.00,   0.01, 1018.1,   83.3, -999.0
22-07-2022, 00:06:51,    146,    0.0,   15.6,   0.00,   0.00, 1018.1,   83.3, -999.0
22-07-2022, 00:07:01,    146,    0.0,   15.7,   0.00,   0.00, 1018.1,   83.4, -999.0
22-07-2022, 00:07:11,    146,    0.0,   15.6,   0.00,   0.00, 1018.1,   83.2, -999.0
22-07-2022, 00:07:21,    146,    0.0,   15.6,   0.00,   0.00, 1018.1,   83.2, -999.0
22-07-2022, 00:07:31,    146,    0.0,   15.6,   0.00,   0.00, 1018.2,   83.4, -999.0
22-07-2022, 00:07:41,    146,    0.0,   15.5,   0.00,   0.01, 1018.1,   83.2, -999.0
22-07-2022, 00:07:51,    146,    0.0,   15.5,   0.00,   0.00, 1018.1,   83.1, -999.0
22-07-2022, 00:08:01,    146,    0.0,   15.5,   0.00,   0.00, 1018.2,   83.1, -999.0
22-07-2022, 00:08:10,    146,    0.2,   15.6,   0.00,   0.00, 1018.2,   83.1, -999.0
22-07-2022, 00:08:21,    145,    0.0,   15.5,   0.00,   0.00, 1018.2,   83.0, -999.0
22-07-2022, 00:08:30,    146,    0.0,   15.5,   0.00,   0.00, 1018.2,   82.9, -999.0
22-07-2022, 00:08:40,    146,    0.0,   15.5,   0.00,   0.00, 1018.2,   82.8, -999.0
22-07-2022, 00:08:50,    146,    0.0,   15.4,   0.00,   0.01, 1018.1,   82.8, -999.0
22-07-2022, 00:09:00,    146,    0.0,   15.4,   0.00,   0.00, 1018.1,   83.0, -999.0
22-07-2022, 00:09:10,    146,    0.1,   15.5,   0.00,   0.00, 1018.2,   83.1, -999.0
22-07-2022, 00:09:20,    146,    0.0,   15.4,   0.00,   0.00, 1018.1,   83.0, -999.0
22-07-2022, 00:09:30,    146,    0.0,   15.4,   0.00,   0.00, 1018.1,   82.8, -999.0
22-07-2022, 00:09:40,    146,    0.1,   15.4,   0.00,   0.00, 1018.2,   82.8, -999.0
22-07-2022, 00:09:50,    146,    0.5,   15.5,   0.00,   0.01, 1018.3,   83.2, -999.0
22-07-2022, 00:10:00,    145,    0.0,   15.4,   0.00,   0.00, 1018.1,   82.9, -999.0
22-07-2022, 00:10:10,    146,    0.0,   15.4,   0.00,   0.00, 1018.1,   82.9, -999.0
22-07-2022, 00:10:20,    146,    0.0,   15.4,   0.00,   0.00, 1018.1,   82.9, -999.0
22-07-2022, 00:10:30,    146,    0.0,   15.4,   0.00,   0.00, 1018.1,   82.8, -999.0
22-07-2022, 00:10:40,    146,    0.0,   15.4,   0.00,   0.00, 1018.1,   82.9, -999.0
22-07-2022, 00:10:50,    146,    0.0,   15.4,   0.00,   0.00, 1018.1,   83.0, -999.0
22-07-2022, 00:11:00,    145,    0.0,   15.5,   0.00,   0.00, 1018.1,   83.0, -999.0
22-07-2022, 00:11:09,    146,    0.0,   15.5,   0.00,   0.00, 1018.1,   83.0, -999.0
22-07-2022, 00:11:19,    146,    0.0,   15.5,   0.00,   0.00, 1018.1,   83.1, -999.0
22-07-2022, 00:11:30,    145,    0.0,   15.5,   0.00,   0.00, 1018.1,   83.1, -999.0
22-07-2022, 00:11:39,    146,    0.0,   15.4,   0.00,   0.00, 1018.1,   83.2, -999.0
22-07-2022, 00:11:49,    145,    0.0,   15.5,   0.00,   0.01, 1018.1,   83.0, -999.0
22-07-2022, 00:11:59,    146,    0.0,   15.5,   0.00,   0.00, 1018.1,   83.0, -999.0
22-07-2022, 00:12:09,    146,    0.0,   15.5,   0.00,   0.00, 1018.1,   83.0, -999.0
22-07-2022, 00:12:19,    149,    0.0,   15.5,   0.00,   0.00, 1018.1,   83.2, -999.0
22-07-2022, 00:12:29,    146,    0.0,   15.5,   0.00,   0.00, 1018.1,   83.2, -999.0
22-07-2022, 00:12:39,    146,    0.0,   15.5,   0.00,   0.00, 1018.1,   83.3, -999.0
22-07-2022, 00:12:49,    145,    0.0,   15.4,   0.00,   0.00, 1018.1,   83.2, -999.0
22-07-2022, 00:12:59,    146,    0.0,   15.6,   0.00,   0.00, 1018.1,   83.1, -999.0
22-07-2022, 00:13:09,    146,    0.0,   15.6,   0.00,   0.00, 1018.1,   83.2, -999.0
22-07-2022, 00:13:19,    146,    0.0,   15.5,   0.00,   0.00, 1018.1,   83.2, -999.0
22-07-2022, 00:13:29,    146,    0.0,   15.5,   0.00,   0.00, 1018.1,   83.1, -999.0
22-07-2022, 00:13:39,    146,    0.0,   15.5,   0.00,   0.00, 1018.1,   83.1, -999.0
22-07-2022, 00:13:48,    146,    0.0,   15.5,   0.00,   0.00, 1018.1,   82.9, -999.0
22-07-2022, 00:13:59,    146,    0.0,   15.4,   0.00,   0.00, 1018.1,   83.0, -999.0
22-07-2022, 00:14:09,    146,    0.0,   15.4,   0.00,   0.00, 1018.1,   82.9, -999.0
22-07-2022, 00:14:18,    146,    0.1,   15.4,   0.00,   0.00, 1018.2,   83.0, -999.0
22-07-2022, 00:14:28,    146,    0.0,   15.5,   0.00,   0.00, 1018.1,   83.0, -999.0
22-07-2022, 00:14:38,    146,    0.4,   15.4,   0.00,   0.00, 1018.2,   83.1, -999.0
22-07-2022, 00:14:48,    146,    0.1,   15.4,   0.00,   0.00, 1018.2,   83.1, -999.0
22-07-2022, 00:14:58,    146,    0.0,   15.5,   0.00,   0.00, 1018.1,   82.9, -999.0
22-07-2022, 00:15:08,    112,    0.4,   15.5,   0.00,   0.01, 1018.1,   83.0, -999.0
22-07-2022, 00:15:18,    112,    0.1,   15.5,   0.00,   0.00, 1018.1,   82.9, -999.0
22-07-2022, 00:15:28,    112,    0.0,   15.5,   0.00,   0.00, 1018.1,   82.8, -999.0
22-07-2022, 00:15:38,    111,    0.0,   15.5,   0.00,   0.00, 1018.1,   82.9, -999.0
22-07-2022, 00:15:48,    112,    0.0,   15.4,   0.00,   0.00, 1018.1,   82.9, -999.0
22-07-2022, 00:15:58,    112,    0.0,   15.4,   0.00,   0.00, 1018.1,   82.9, -999.0
22-07-2022, 00:16:08,    112,    0.0,   15.5,   0.00,   0.00, 1018.1,   83.0, -999.0
22-07-2022, 00:16:18,    112,    0.0,   15.6,   0.00,   0.00, 1018.1,   83.2, -999.0
22-07-2022, 00:16:28,    112,    0.0,   15.6,   0.00,   0.00, 1018.1,   83.2, -999.0
22-07-2022, 00:16:38,    112,    0.0,   15.5,   0.00,   0.00, 1018.1,   83.0, -999.0
22-07-2022, 00:16:48,    112,    0.0,   15.6,   0.00,   0.00, 1018.1,   83.3, -999.0
22-07-2022, 00:16:57,    115,    0.1,   15.6,   0.00,   0.00, 1018.1,   83.5, -999.0
22-07-2022, 00:17:08,    124,    0.4,   15.7,   0.00,   0.00, 1018.2,   83.6, -999.0
22-07-2022, 00:17:17,    115,    0.3,   15.6,   0.00,   0.00, 1018.2,   83.3, -999.0
22-07-2022, 00:17:27,    112,    0.7,   15.6,   0.00,   0.00, 1018.2,   83.2, -999.0
22-07-2022, 00:17:38,    112,    0.1,   15.6,   0.00,   0.00, 1018.1,   83.1, -999.0
22-07-2022, 00:17:47,    112,    0.0,   15.5,   0.00,   0.00, 1018.1,   82.9, -999.0
22-07-2022, 00:17:57,    112,    0.0,   15.5,   0.00,   0.00, 1018.1,   82.6, -999.0
22-07-2022, 00:18:07,    112,    0.0,   15.4,   0.00,   0.00, 1018.1,   82.5, -999.0
22-07-2022, 00:18:17,    112,    0.0,   15.4,   0.00,   0.00, 1018.0,   82.6, -999.0
22-07-2022, 00:18:27,    112,    0.0,   15.5,   0.00,   0.00, 1018.1,   82.6, -999.0
22-07-2022, 00:18:37,    112,    0.0,   15.5,   0.00,   0.00, 1018.1,   82.6, -999.0
22-07-2022, 00:18:47,    122,    0.0,   15.5,   0.00,   0.00, 1018.1,   82.9, -999.0
22-07-2022, 00:18:57,    122,    0.0,   15.6,   0.00,   0.00, 1018.1,   82.9, -999.0
22-07-2022, 00:19:07,    122,    0.0,   15.6,   0.00,   0.00, 1018.1,   82.8, -999.0
22-07-2022, 00:19:17,    122,    0.0,   15.5,   0.00,   0.00, 1018.0,   82.8, -999.0
22-07-2022, 00:19:27,    122,    0.0,   15.5,   0.00,   0.00, 1018.1,   82.8, -999.0
22-07-2022, 00:19:37,    122,    0.0,   15.5,   0.00,   0.00, 1018.1,   82.8, -999.0
22-07-2022, 00:19:47,    122,    0.0,   15.5,   0.00,   0.00, 1018.1,   82.7, -999.0
22-07-2022, 00:19:56,    121,    0.0,   15.5,   0.00,   0.00, 1018.1,   82.8, -999.0
22-07-2022, 00:20:07,    123,    0.0,   15.5,   0.00,   0.00, 1018.1,   82.7, -999.0
22-07-2022, 00:20:17,    122,    0.0,   15.5,   0.00,   0.00, 1018.1,   82.7, -999.0
22-07-2022, 00:20:26,    122,    0.0,   15.3,   0.00,   0.00, 1018.1,   82.9, -999.0
22-07-2022, 00:20:36,    122,    0.0,   15.5,   0.00,   0.00, 1018.1,   82.8, -999.0
22-07-2022, 00:20:47,    122,    0.0,   15.5,   0.00,   0.00, 1018.1,   82.7, -999.0
22-07-2022, 00:20:56,    122,    0.0,   15.5,   0.00,   0.00, 1018.1,   82.9, -999.0
22-07-2022, 00:21:06,    122,    0.0,   15.6,   0.00,   0.00, 1018.1,   83.3, -999.0
22-07-2022, 00:21:16,    122,    0.0,   15.6,   0.00,   0.00, 1018.1,   83.1, -999.0
22-07-2022, 00:21:26,    122,    0.0,   15.5,   0.00,   0.00, 1018.1,   83.0, -999.0
22-07-2022, 00:21:36,    122,    0.0,   15.5,   0.00,   0.00, 1018.1,   82.8, -999.0
22-07-2022, 00:21:46,    122,    0.0,   15.5,   0.00,   0.00, 1018.1,   82.6, -999.0
22-07-2022, 00:21:56,    122,    0.0,   15.5,   0.00,   0.00, 1018.1,   82.7, -999.0
22-07-2022, 00:22:06,    122,    0.0,   15.5,   0.00,   0.00, 1018.1,   82.7, -999.0
22-07-2022, 00:22:16,    122,    0.0,   15.4,   0.00,   0.00, 1018.1,   82.6, -999.0
22-07-2022, 00:22:26,    122,    0.0,   15.5,   0.00,   0.00, 1018.1,   82.6, -999.0
22-07-2022, 00:22:36,    122,    0.0,   15.5,   0.00,   0.00, 1018.0,   82.6, -999.0
22-07-2022, 00:22:46,    122,    0.0,   15.5,   0.00,   0.00, 1018.1,   82.6, -999.0
22-07-2022, 00:22:56,    122,    0.0,   15.5,   0.00,   0.00, 1018.1,   82.6, -999.0
22-07-2022, 00:23:05,    122,    0.0,   15.5,   0.00,   0.00, 1018.1,   82.6, -999.0
22-07-2022, 00:23:16,    122,    0.0,   15.4,   0.00,   0.00, 1018.1,   82.7, -999.0
22-07-2022, 00:23:25,    122,    0.0,   15.3,   0.00,   0.00, 1018.1,   82.7, -999.0
22-07-2022, 00:23:35,    122,    0.0,   15.4,   0.00,   0.00, 1018.1,   82.8, -999.0
22-07-2022, 00:23:45,    122,    0.0,   15.5,   0.00,   0.00, 1018.1,   82.8, -999.0
22-07-2022, 00:23:55,    122,    0.0,   15.5,   0.00,   0.00, 1018.1,   82.8, -999.0
22-07-2022, 00:24:05,    122,    0.0,   15.4,   0.00,   0.00, 1018.1,   82.8, -999.0
22-07-2022, 00:24:15,    122,    0.0,   15.5,   0.00,   0.00, 1018.1,   82.7, -999.0
22-07-2022, 00:24:25,    122,    0.0,   15.5,   0.00,   0.00, 1018.1,   82.8, -999.0
22-07-2022, 00:24:35,    122,    0.0,   15.6,   0.00,   0.00, 1018.1,   82.9, -999.0
22-07-2022, 00:24:45,    122,    0.0,   15.6,   0.00,   0.00, 1018.1,   83.0, -999.0
22-07-2022, 00:24:55,    123,    0.0,   15.5,   0.00,   0.00, 1018.1,   82.9, -999.0
22-07-2022, 00:25:05,    122,    0.0,   15.5,   0.00,   0.00, 1018.1,   82.9, -999.0
22-07-2022, 00:25:15,    122,    0.0,   15.5,   0.00,   0.00, 1018.1,   82.8, -999.0
22-07-2022, 00:25:25,    122,    0.0,   15.5,   0.00,   0.00, 1018.1,   82.8, -999.0
22-07-2022, 00:25:35,    122,    0.0,   15.5,   0.00,   0.00, 1018.1,   82.8, -999.0
22-07-2022, 00:25:45,    122,    0.0,   15.5,   0.00,   0.00, 1018.0,   82.8, -999.0
22-07-2022, 00:25:55,    122,    0.0,   15.5,   0.00,   0.00, 1018.1,   82.7, -999.0
22-07-2022, 00:26:04,    122,    0.0,   15.5,   0.00,   0.00, 1018.1,   82.7, -999.0
22-07-2022, 00:26:14,    121,    0.0,   15.4,   0.00,   0.00, 1018.1,   82.7, -999.0
22-07-2022, 00:26:25,    122,    0.0,   15.5,   0.00,   0.00, 1018.0,   82.6, -999.0
22-07-2022, 00:26:34,    122,    0.0,   15.5,   0.00,   0.00, 1018.0,   82.7, -999.0
22-07-2022, 00:26:44,    122,    0.0,   15.5,   0.00,   0.00, 1018.0,   82.6, -999.0
22-07-2022, 00:26:55,    122,    0.0,   15.5,   0.00,   0.00, 1018.0,   82.6, -999.0
22-07-2022, 00:27:04,    122,    0.0,   15.5,   0.00,   0.00, 1018.0,   82.4, -999.0
22-07-2022, 00:27:14,    122,    0.0,   15.5,   0.00,   0.00, 1018.0,   82.5, -999.0
22-07-2022, 00:27:24,    122,    0.0,   15.5,   0.00,   0.00, 1018.0,   82.5, -999.0
22-07-2022, 00:27:34,    122,    0.0,   15.5,   0.00,   0.00, 1018.1,   82.5, -999.0
22-07-2022, 00:27:44,    122,    0.0,   15.6,   0.00,   0.00, 1018.1,   82.7, -999.0
22-07-2022, 00:27:54,    122,    0.0,   15.6,   0.00,   0.00, 1018.1,   82.5, -999.0
22-07-2022, 00:28:04,    122,    0.0,   15.6,   0.00,   0.00, 1018.0,   82.4, -999.0
22-07-2022, 00:28:14,    122,    0.0,   15.6,   0.00,   0.00, 1018.0,   82.6, -999.0
22-07-2022, 00:28:24,    122,    0.0,   15.6,   0.00,   0.00, 1018.1,   82.5, -999.0
22-07-2022, 00:28:34,    122,    0.0,   15.6,   0.00,   0.00, 1018.0,   82.5, -999.0
22-07-2022, 00:28:44,    122,    0.0,   15.6,   0.00,   0.00, 1018.0,   82.5, -999.0
22-07-2022, 00:28:54,    122,    0.0,   15.6,   0.00,   0.00, 1018.0,   82.5, -999.0
22-07-2022, 00:29:04,    122,    0.0,   15.6,   0.00,   0.00, 1018.0,   82.3, -999.0
22-07-2022, 00:29:13,    122,    0.0,   15.5,   0.00,   0.00, 1018.0,   82.3, -999.0
22-07-2022, 00:29:24,    122,    0.0,   15.6,   0.00,   0.00, 1018.0,   82.3, -999.0
22-07-2022, 00:29:34,    122,    0.0,   15.5,   0.00,   0.00, 1018.0,   82.3, -999.0
22-07-2022, 00:29:43,    122,    0.0,   15.6,   0.00,   0.00, 1018.0,   82.4, -999.0
22-07-2022, 00:29:53,    122,    0.0,   15.7,   0.00,   0.00, 1018.0,   82.4, -999.0
22-07-2022, 00:30:03,    122,    0.0,   15.6,   0.00,   0.00, 1018.0,   82.4, -999.0
22-07-2022, 00:30:13,    122,    0.0,   15.6,   0.00,   0.00, 1018.0,   82.5, -999.0
22-07-2022, 00:30:23,    122,    0.0,   15.6,   0.00,   0.00, 1018.0,   82.4, -999.0
22-07-2022, 00:30:33,    122,    0.0,   15.6,   0.00,   0.00, 1018.0,   82.5, -999.0
22-07-2022, 00:30:43,    122,    0.0,   15.6,   0.00,   0.00, 1018.0,   82.5, -999.0
22-07-2022, 00:30:53,    122,    0.0,   15.6,   0.00,   0.00, 1018.0,   82.6, -999.0
22-07-2022, 00:31:03,    122,    0.0,   15.6,   0.00,   0.00, 1018.0,   82.5, -999.0
22-07-2022, 00:31:13,    122,    0.0,   15.6,   0.00,   0.00, 1018.0,   82.5, -999.0
22-07-2022, 00:31:23,    122,    0.0,   15.6,   0.00,   0.00, 1018.0,   82.5, -999.0
22-07-2022, 00:31:33,    122,    0.0,   15.7,   0.00,   0.00, 1018.0,   82.6, -999.0
22-07-2022, 00:31:43,    122,    0.0,   15.7,   0.00,   0.00, 1018.0,   82.7, -999.0
22-07-2022, 00:31:53,    122,    0.0,   15.6,   0.00,   0.00, 1018.0,   82.8, -999.0
22-07-2022, 00:32:03,    122,    0.0,   15.6,   0.00,   0.00, 1018.0,   82.8, -999.0
22-07-2022, 00:32:12,    122,    0.0,   15.7,   0.00,   0.00, 1018.0,   83.0, -999.0
22-07-2022, 00:32:23,    122,    0.0,   15.6,   0.00,   0.00, 1018.0,   83.0, -999.0
22-07-2022, 00:32:33,    122,    0.0,   15.6,   0.00,   0.00, 1018.0,   82.9, -999.0
22-07-2022, 00:32:42,    122,    0.0,   15.7,   0.00,   0.00, 1018.0,   82.9, -999.0
22-07-2022, 00:32:52,    122,    0.0,   15.7,   0.00,   0.00, 1018.0,   82.8, -999.0
22-07-2022, 00:33:03,    122,    0.0,   15.7,   0.00,   0.00, 1018.0,   82.8, -999.0
22-07-2022, 00:33:12,    122,    0.0,   15.6,   0.00,   0.00, 1018.0,   82.8, -999.0
22-07-2022, 00:33:22,    122,    0.0,   15.7,   0.00,   0.00, 1018.0,   82.9, -999.0
22-07-2022, 00:33:32,    122,    0.0,   15.7,   0.00,   0.00, 1018.0,   82.8, -999.0
22-07-2022, 00:33:42,    122,    0.0,   15.7,   0.00,   0.00, 1018.0,   82.8, -999.0
22-07-2022, 00:33:52,    122,    0.0,   15.6,   0.00,   0.00, 1018.0,   82.8, -999.0
22-07-2022, 00:34:02,    122,    0.0,   15.7,   0.00,   0.00, 1018.0,   82.9, -999.0
22-07-2022, 00:34:12,    122,    0.0,   15.7,   0.00,   0.00, 1018.0,   82.9, -999.0
22-07-2022, 00:34:22,    122,    0.0,   15.7,   0.00,   0.00, 1018.0,   83.0, -999.0
22-07-2022, 00:34:32,    122,    0.0,   15.7,   0.00,   0.00, 1018.0,   83.1, -999.0
22-07-2022, 00:34:42,    122,    0.0,   15.7,   0.00,   0.00, 1018.0,   83.0, -999.0
22-07-2022, 00:34:52,    122,    0.0,   15.7,   0.00,   0.00, 1018.0,   83.1, -999.0
22-07-2022, 00:35:02,    122,    0.0,   15.7,   0.00,   0.00, 1018.0,   83.1, -999.0
22-07-2022, 00:35:12,    122,    0.0,   15.7,   0.00,   0.00, 1018.0,   83.1, -999.0
22-07-2022, 00:35:21,    122,    0.0,   15.6,   0.00,   0.00, 1018.0,   82.9, -999.0
22-07-2022, 00:35:32,    122,    0.0,   15.7,   0.00,   0.00, 1018.0,   82.8, -999.0
22-07-2022, 00:35:42,    122,    0.0,   15.6,   0.00,   0.00, 1018.0,   82.9, -999.0
22-07-2022, 00:35:51,    123,    0.0,   15.6,   0.00,   0.00, 1018.0,   82.9, -999.0
22-07-2022, 00:36:01,    122,    0.0,   15.6,   0.00,   0.00, 1018.0,   82.9, -999.0
22-07-2022, 00:36:11,    122,    0.0,   15.6,   0.00,   0.00, 1018.0,   82.9, -999.0
22-07-2022, 00:36:21,    122,    0.0,   15.6,   0.00,   0.00, 1018.0,   82.8, -999.0
22-07-2022, 00:36:31,    122,    0.0,   15.7,   0.00,   0.00, 1018.0,   82.9, -999.0
22-07-2022, 00:36:41,    122,    0.0,   15.7,   0.00,   0.00, 1018.0,   82.9, -999.0
22-07-2022, 00:36:51,    122,    0.0,   15.6,   0.00,   0.00, 1018.0,   82.9, -999.0
22-07-2022, 00:37:01,    122,    0.0,   15.6,   0.00,   0.00, 1018.0,   82.9, -999.0
22-07-2022, 00:37:11,    122,    0.0,   15.7,   0.00,   0.00, 1018.0,   83.0, -999.0
22-07-2022, 00:37:21,    122,    0.0,   15.7,   0.00,   0.00, 1018.0,   83.0, -999.0
22-07-2022, 00:37:31,    122,    0.0,   15.7,   0.00,   0.00, 1018.0,   83.1, -999.0
22-07-2022, 00:37:41,    122,    0.0,   15.7,   0.00,   0.00, 1018.0,   82.9, -999.0
22-07-2022, 00:37:51,    122,    0.0,   15.7,   0.00,   0.00, 1018.0,   82.8, -999.0
22-07-2022, 00:38:01,    122,    0.0,   15.6,   0.00,   0.00, 1018.0,   82.8, -999.0
22-07-2022, 00:38:11,    122,    0.0,   15.5,   0.00,   0.00, 1018.0,   82.7, -999.0
22-07-2022, 00:38:21,    122,    0.0,   15.6,   0.00,   0.00, 1018.0,   82.7, -999.0
22-07-2022, 00:38:30,    122,    0.0,   15.6,   0.00,   0.00, 1018.0,   82.8, -999.0
22-07-2022, 00:38:41,    122,    0.0,   15.6,   0.00,   0.00, 1018.0,   82.7, -999.0
22-07-2022, 00:38:50,    122,    0.0,   15.6,   0.00,   0.00, 1018.0,   82.8, -999.0
22-07-2022, 00:39:00,    122,    0.0,   15.5,   0.00,   0.00, 1018.0,   82.8, -999.0
22-07-2022, 00:39:10,    122,    0.0,   15.8,   0.00,   0.00, 1018.0,   82.8, -999.0
22-07-2022, 00:39:20,    122,    0.0,   15.6,   0.00,   0.00, 1018.0,   82.8, -999.0
22-07-2022, 00:39:30,    122,    0.0,   15.6,   0.00,   0.00, 1018.0,   82.8, -999.0
22-07-2022, 00:39:40,    122,    0.0,   15.6,   0.00,   0.00, 1018.0,   82.8, -999.0
22-07-2022, 00:39:50,    122,    0.0,   15.5,   0.00,   0.00, 1018.0,   82.7, -999.0
22-07-2022, 00:40:00,    122,    0.0,   15.6,   0.00,   0.00, 1018.0,   82.8, -999.0
22-07-2022, 00:40:10,    122,    0.0,   15.6,   0.00,   0.00, 1018.0,   82.9, -999.0
22-07-2022, 00:40:20,    122,    0.0,   15.7,   0.00,   0.00, 1018.0,   83.0, -999.0
22-07-2022, 00:40:30,    122,    0.0,   15.7,   0.00,   0.00, 1018.0,   83.0, -999.0
22-07-2022, 00:40:40,    122,    0.0,   15.7,   0.00,   0.00, 1018.0,   83.0, -999.0
22-07-2022, 00:40:50,    122,    0.0,   15.7,   0.00,   0.00, 1018.0,   83.1, -999.0
22-07-2022, 00:40:59,    122,    0.0,   15.7,   0.00,   0.00, 1018.0,   83.2, -999.0
22-07-2022, 00:41:10,    122,    0.0,   15.6,   0.00,   0.00, 1018.0,   83.0, -999.0
22-07-2022, 00:41:20,    122,    0.0,   15.6,   0.00,   0.00, 1018.0,   83.1, -999.0
22-07-2022, 00:41:29,    122,    0.0,   15.6,   0.00,   0.00, 1018.0,   83.1, -999.0
22-07-2022, 00:41:39,    122,    0.0,   15.7,   0.00,   0.00, 1018.0,   83.2, -999.0
22-07-2022, 00:41:50,    122,    0.0,   15.5,   0.00,   0.00, 1018.0,   83.2, -999.0
22-07-2022, 00:41:59,    122,    0.0,   15.6,   0.00,   0.00, 1018.0,   83.1, -999.0
22-07-2022, 00:42:09,    122,    0.0,   15.6,   0.00,   0.00, 1018.0,   83.1, -999.0
22-07-2022, 00:42:19,    122,    0.0,   15.6,   0.00,   0.00, 1018.0,   83.2, -999.0
22-07-2022, 00:42:29,    122,    0.0,   15.5,   0.00,   0.00, 1018.0,   83.2, -999.0
22-07-2022, 00:42:39,    122,    0.0,   15.6,   0.00,   0.00, 1018.0,   83.1, -999.0
22-07-2022, 00:42:49,    122,    0.0,   15.6,   0.00,   0.00, 1018.0,   83.1, -999.0
22-07-2022, 00:42:59,    122,    0.0,   15.7,   0.00,   0.00, 1018.0,   83.0, -999.0
22-07-2022, 00:43:09,    122,    0.0,   15.6,   0.00,   0.00, 1018.0,   83.2, -999.0
22-07-2022, 00:43:19,    122,    0.0,   15.7,   0.00,   0.00, 1018.0,   83.1, -999.0
22-07-2022, 00:43:29,    122,    0.0,   15.7,   0.00,   0.00, 1018.0,   83.2, -999.0
22-07-2022, 00:43:39,    122,    0.0,   15.5,   0.00,   0.00, 1018.0,   83.0, -999.0
22-07-2022, 00:43:49,    122,    0.0,   15.6,   0.00,   0.00, 1018.0,   83.0, -999.0
22-07-2022, 00:43:59,    122,    0.0,   15.6,   0.00,   0.00, 1018.0,   82.8, -999.0
22-07-2022, 00:44:09,    122,    0.0,   15.6,   0.00,   0.00, 1018.0,   82.9, -999.0
22-07-2022, 00:44:19,    122,    0.0,   15.6,   0.00,   0.00, 1018.0,   82.9, -999.0
22-07-2022, 00:44:29,    122,    0.0,   15.6,   0.00,   0.00, 1018.0,   82.9, -999.0
22-07-2022, 00:44:38,    122,    0.0,   15.6,   0.00,   0.00, 1018.0,   83.2, -999.0
22-07-2022, 00:44:49,    122,    0.0,   15.5,   0.00,   0.00, 1018.0,   82.8, -999.0
22-07-2022, 00:44:58,    122,    0.0,   15.5,   0.00,   0.00, 1018.0,   82.6, -999.0
22-07-2022, 00:45:08,    122,    0.0,   15.6,   0.00,   0.00, 1018.0,   82.5, -999.0
22-07-2022, 00:45:18,    122,    0.0,   15.6,   0.00,   0.00, 1018.1,   82.7, -999.0
22-07-2022, 00:45:28,    121,    0.0,   15.5,   0.00,   0.00, 1018.0,   82.7, -999.0
22-07-2022, 00:45:38,    122,    0.0,   15.5,   0.00,   0.00, 1018.0,   82.7, -999.0
22-07-2022, 00:45:48,    122,    0.0,   15.5,   0.00,   0.00, 1018.0,   82.7, -999.0
22-07-2022, 00:45:58,    122,    0.0,   15.6,   0.00,   0.00, 1018.0,   82.9, -999.0
22-07-2022, 00:46:08,    122,    0.0,   15.6,   0.00,   0.00, 1018.0,   82.9, -999.0
22-07-2022, 00:46:18,    122,    0.0,   15.6,   0.00,   0.00, 1018.0,   82.8, -999.0
22-07-2022, 00:46:28,    122,    0.0,   15.5,   0.00,   0.00, 1018.0,   82.7, -999.0
22-07-2022, 00:46:38,    122,    0.0,   15.5,   0.00,   0.00, 1018.0,   82.8, -999.0